This is the latest recevied weather packets stored in our database for station/object VA3XLT-1. If no packets are shown the sender has not sent any weather packets the latest 10 day(s).
| Time | Temp. | Humidity | Pressure | Rain* | Wind** | Luminosity | Snow |
|---|---|---|---|---|---|---|---|
| 1777358278 | 15° C | 79% | 1009.1 hPa | 0 mm | - | - | - |
| 1777357978 | 15° C | 76% | 1009.2 hPa | 0 mm | - | - | - |
| 1777357678 | 15° C | 72% | 1009.3 hPa | 0 mm | - | - | - |
| 1777357378 | 15.56° C | 68% | 1009.3 hPa | 0 mm | - | - | - |
| 1777357078 | 15.56° C | 66% | 1009.3 hPa | 0 mm | - | - | - |
| 1777356778 | 15.56° C | 64% | 1009.4 hPa | 0 mm | - | - | - |
| 1777356478 | 15.56° C | 64% | 1009.5 hPa | 0 mm | - | - | - |
| 1777356178 | 15.56° C | 63% | 1009.5 hPa | 0 mm | - | - | - |
| 1777355878 | 15.56° C | 62% | 1009.5 hPa | 0 mm | - | - | - |
| 1777355578 | 15.56° C | 63% | 1009.6 hPa | 0 mm | - | - | - |
| 1777355278 | 15.56° C | 64% | 1009.6 hPa | 0 mm | - | - | - |
| 1777354978 | 15.56° C | 64% | 1009.5 hPa | 0 mm | - | - | - |
| 1777354678 | 15.56° C | 63% | 1009.7 hPa | 0 mm | - | - | - |
| 1777354378 | 15.56° C | 62% | 1009.7 hPa | 0 mm | - | - | - |
| 1777354078 | 15.56° C | 62% | 1009.7 hPa | 0 mm | - | - | - |
| 1777353778 | 15.56° C | 62% | 1009.6 hPa | 0 mm | - | - | - |
| 1777353478 | 15.56° C | 62% | 1009.6 hPa | 0 mm | - | - | - |
| 1777353178 | 15.56° C | 61% | 1009.6 hPa | 0 mm | - | - | - |
| 1777352878 | 15.56° C | 61% | 1009.3 hPa | 0 mm | - | - | - |
| 1777352578 | 15.56° C | 60% | 1009.3 hPa | 0 mm | - | - | - |
| 1777352278 | 15.56° C | 62% | 1009.1 hPa | 0 mm | - | - | - |
| 1777351978 | 15.56° C | 61% | 1009.2 hPa | 0 mm | - | - | - |
| 1777351678 | 15.56° C | 63% | 1009.5 hPa | 0 mm | - | - | - |
| 1777351378 | 15.56° C | 62% | 1009.7 hPa | 0 mm | - | - | - |
| 1777351078 | 16.11° C | 61% | 1009.8 hPa | 0 mm | - | - | - |
* Rain latest hour (hover to see other rain measurements)
** Current wind speed in m/s (hover to see current wind gust speed)